Location: Kellogg
(38.0159°N, 90.0546°W)
Time: 15:24:33
(UTC+00:00)

Courier 1B - Pass Details

Date: 15 September 2024
Orbit: 962 x 1208 km, 28.3° (Epoch: 07 October)

Event Time Altitude Azimuth Distance (km) Brightness Sun altitude
Rises 22:09:31 0° 256° (WSW) 3,946 12.2 22.2°
Reaches altitude 10° 22:12:25 10° 249° (WSW) 3,022 12.2 21.6°
Maximum altitude 22:19:19 40° 183° (S) 1,663 9.2 20.3°
Drops below altitude 10° 22:26:28 10° 117° (ESE) 3,132 9.8 18.9°
Sets 22:29:32 0° 110° (ESE) 4,104 10.3 18.3°
